Regional Weather Roundup
Issued by NWS Midland/Odessa, TX

Skip options and go directly to product.
Home | Oldest Version | Previous Version | Current Version | All | Graphics & Text | Save Text | Print | Product List | Glossary On

Skip product version selection by date and time.   
364
ASUS44 KMAF 011110
RWRMAF
MIDLAND AREA WEATHER ROUNDUP
NATIONAL WEATHER SERVICE MIDLAND TX
600 AM CDT SAT AUG 01 2015

...IN SOUTHWEST TEXAS AND SOUTHEAST NEW MEXICO...

CITY           SKY/WX    TMP DP  RH WIND       PRES   REMARKS
ALPINE         PTCLDY    69  60  71 W3        30.23F
ANDREWS        FAIR      72  64  76 S6        30.11S
ARTESIA        CLEAR     72  64  78 N6        30.14F
BIG SPRING     CLEAR     75  63  65 SE5       30.10S
CARLSBAD       CLEAR     75  59  57 W7        30.10F
DRYDEN           N/A     77  66  68 NW7       30.04S
FORT STOCKTON  PTCLDY    74  64  71 SE10      30.08F
GUAD PASS      CLEAR     73  52  47 SE9       30.26S
HOBBS          CLEAR     70  66  88 CALM      30.16R
MARFA          CLEAR     61  57  88 N5        30.21F
MIDLAND AIRPK  CLEAR     78  62  57 S6        30.09S
MIDLAND INTL   CLEAR     74  65  73 SE5       30.09S
ODESSA         CLEAR     78  62  57 S8        30.10S
PECOS          PTCLDY    75  60  58 NE7       30.05S
PRESIDIO       FAIR      79  59  50 MISG      30.05F
SEMINOLE       CLEAR     70  64  81 N3        30.14S
SNYDER         CLEAR     72  66  80 N6        30.11R
WINK           CLEAR     77  60  55 E7        30.06F
$$
...OTHER STATIONS IN TEXAS...

CITY           SKY/WX    TMP DP  RH WIND       PRES   REMARKS
ABILENE        CLEAR     75  66  73 E3        30.07R
AMARILLO       CLOUDY    65  63  93 NW5       30.18R
AUSTIN         PTCLDY    70  65  84 N3        29.97F
BROWNSVILLE    PTCLDY    76  74  93 CALM      29.91F
CORPUS CHRISTI CLOUDY    76  73  91 N3        29.93S
DALLAS FTW     MOCLDY    78  60  53 CALM      30.02S
DEL RIO        PTCLDY    77  69  76 NE6       29.97F
EL PASO        PTCLDY    78  55  44 N12       30.12S
HOUSTON INT    PTCLDY    74  65  73 NE8       29.95S
LUBBOCK        CLOUDY    70  65  84 NE10      30.16R
SAN ANGELO     CLEAR     74  65  73 CALM      30.04F
SAN ANTONIO    PTCLDY    77  71  82 NW3       29.98S
WACO           CLEAR     71  65  81 N6        30.01S
WICHITA FALLS  NOT AVBL
$$
...OTHER LOCATIONS IN NEW MEXICO...

CITY           SKY/WX    TMP DP  RH WIND       PRES   REMARKS
ALAMAGORDO     PTCLDY    70  55  60 N3        30.16S
ALBUQUERQUE    CLOUDY    68  58  70 CALM      30.29F
CANNON AFB     CLOUDY    67  66  96 NE3       30.21F
CLOVIS         CLOUDY    66  64  94 E6        30.22S
HOLLOMAN AFB   PTCLDY    72  58  60 NW13      30.14S
ROSWELL        PTCLDY    74  64  71 N6        30.15F
RUIDOSO          N/A    N/A N/A N/A MISG        N/A
SANTA FE       MOCLDY    62  57  83 S5        30.34F
TRUTH OR CONSE CLOUDY    66  62  87 N5        30.22F
TUCUMCARI      RAIN      69  66  90 SW7       30.21S FOG
$$

USA.gov is the U.S. government's official web portal to all federal, state and local government web resources and services.